Time,TemperatureF,DewpointF,PressureIn,WindDirection,WindDirectionDegrees,WindSpeedMPH,WindSpeedGustMPH,Humidity,HourlyPrecipIn,Conditions,Clouds,dailyrainin,SoftwareType,DateUTC
2013-05-08 00:01:00,55.4,51.6,29.77,North,-999,-999.0,0.0,87,0.00,,---,0.00,VWS V14.01,2013-05-08 04:01:00,
2013-05-08 00:02:00,55.6,51.8,29.77,North,-999,-999.0,0.0,87,0.00,,---,0.00,VWS V14.01,2013-05-08 04:02:00,
2013-05-08 00:05:00,55.4,51.6,29.77,North,-999,-999.0,0.0,87,0.00,,---,0.00,VWS V14.01,2013-05-08 04:05:00,
2013-05-08 00:06:00,55.4,51.6,29.77,North,-999,-999.0,0.0,87,0.00,,---,0.00,VWS V14.01,2013-05-08 04:06:00,
2013-05-08 00:11:00,55.6,51.8,29.76,North,-999,-999.0,0.0,87,0.00,,---,0.00,VWS V14.01,2013-05-08 04:11:00,
2013-05-08 00:16:00,55.4,51.6,29.76,North,-999,-999.0,0.0,87,0.00,,---,0.00,VWS V14.01,2013-05-08 04:16:00,
2013-05-08 00:21:00,55.4,51.6,29.76,North,-999,-999.0,0.0,87,0.00,,---,0.00,VWS V14.01,2013-05-08 04:21:00,
2013-05-08 00:26:00,55.3,51.5,29.76,North,-999,-999.0,0.0,87,0.00,,---,0.00,VWS V14.01,2013-05-08 04:26:00,
2013-05-08 00:31:00,55.1,51.3,29.76,North,-999,-999.0,0.0,87,0.00,,---,0.00,VWS V14.01,2013-05-08 04:31:00,
2013-05-08 00:36:00,55.1,51.3,29.76,North,-999,-999.0,0.0,87,0.00,,---,0.00,VWS V14.01,2013-05-08 04:36:00,
2013-05-08 00:41:00,54.9,51.1,29.76,North,-999,-999.0,0.0,87,0.00,,---,0.00,VWS V14.01,2013-05-08 04:41:00,
2013-05-08 00:46:00,54.9,51.1,29.76,North,-999,-999.0,0.0,87,0.00,,---,0.00,VWS V14.01,2013-05-08 04:46:00,
2013-05-08 00:51:00,54.7,51.2,29.76,North,-999,-999.0,0.0,88,0.00,,---,0.00,VWS V14.01,2013-05-08 04:51:00,
2013-05-08 00:56:00,54.5,51.0,29.76,North,-999,-999.0,0.0,88,0.00,,---,0.00,VWS V14.01,2013-05-08 04:56:00,
2013-05-08 01:02:00,54.4,50.9,29.76,North,-999,-999.0,0.0,88,0.00,,---,0.00,VWS V14.01,2013-05-08 05:02:00,
2013-05-08 01:07:00,54.2,50.7,29.76,North,-999,-999.0,0.0,88,0.00,,---,0.00,VWS V14.01,2013-05-08 05:07:00,
2013-05-08 01:12:00,54.0,50.5,29.76,North,-999,-999.0,0.0,88,0.00,,---,0.00,VWS V14.01,2013-05-08 05:12:00,
2013-05-08 01:18:00,54.0,50.5,29.76,North,-999,-999.0,0.0,88,0.00,,---,0.00,VWS V14.01,2013-05-08 05:18:00,
2013-05-08 01:59:00,53.3,50.2,29.75,North,-999,-999.0,0.0,89,0.00,,---,0.00,VWS V14.01,2013-05-08 05:59:00,
2013-05-08 02:05:00,53.3,50.2,29.75,North,-999,-999.0,0.0,89,0.00,,---,0.00,VWS V14.01,2013-05-08 06:05:00,
2013-05-08 02:10:00,53.1,50.0,29.75,North,-999,-999.0,0.0,89,0.00,,---,0.00,VWS V14.01,2013-05-08 06:10:00,
2013-05-08 02:16:00,53.1,50.0,29.75,North,-999,-999.0,0.0,89,0.00,,---,0.00,VWS V14.01,2013-05-08 06:16:00,
2013-05-08 02:21:00,53.1,50.0,29.75,North,-999,-999.0,0.0,89,0.00,,---,0.00,VWS V14.01,2013-05-08 06:21:00,
2013-05-08 02:26:00,52.9,49.8,29.74,North,-999,-999.0,0.0,89,0.00,,---,0.00,VWS V14.01,2013-05-08 06:26:00,
2013-05-08 02:31:00,52.9,49.8,29.74,North,-999,-999.0,0.0,89,0.00,,---,0.00,VWS V14.01,2013-05-08 06:31:00,
2013-05-08 02:36:00,52.7,49.5,29.74,North,-999,-999.0,0.0,89,0.00,,---,0.00,VWS V14.01,2013-05-08 06:36:00,
2013-05-08 02:41:00,52.6,49.5,29.74,North,-999,-999.0,0.0,89,0.00,,---,0.00,VWS V14.01,2013-05-08 06:41:00,
2013-05-08 02:46:00,52.4,49.3,29.74,North,-999,-999.0,0.0,89,0.00,,---,0.00,VWS V14.01,2013-05-08 06:46:00,
2013-05-08 02:51:00,52.2,49.1,29.74,North,-999,-999.0,0.0,89,0.00,,---,0.00,VWS V14.01,2013-05-08 06:51:00,
2013-05-08 02:56:00,52.2,49.1,29.74,North,-999,-999.0,0.0,89,0.00,,---,0.00,VWS V14.01,2013-05-08 06:56:00,
2013-05-08 03:02:00,51.8,48.7,29.74,North,-999,-999.0,0.0,89,0.00,,---,0.00,VWS V14.01,2013-05-08 07:02:00,
2013-05-08 03:07:00,51.8,48.7,29.74,North,-999,-999.0,0.0,89,0.00,,---,0.00,VWS V14.01,2013-05-08 07:07:00,
2013-05-08 03:12:00,51.7,48.6,29.74,North,-999,-999.0,0.0,89,0.00,,---,0.00,VWS V14.01,2013-05-08 07:12:00,
2013-05-08 03:17:00,51.5,48.4,29.74,North,-999,-999.0,0.0,89,0.00,,---,0.00,VWS V14.01,2013-05-08 07:17:00,
2013-05-08 03:22:00,51.5,48.4,29.74,North,-999,-999.0,0.0,89,0.00,,---,0.00,VWS V14.01,2013-05-08 07:22:00,
2013-05-08 03:27:00,51.3,48.2,29.74,North,-999,-999.0,0.0,89,0.00,,---,0.00,VWS V14.01,2013-05-08 07:27:00,
2013-05-08 03:32:00,51.3,48.2,29.74,North,-999,-999.0,0.0,89,0.00,,---,0.00,VWS V14.01,2013-05-08 07:32:00,
2013-05-08 03:37:00,51.3,48.2,29.74,North,-999,-999.0,0.0,89,0.00,,---,0.00,VWS V14.01,2013-05-08 07:37:00,
2013-05-08 03:42:00,51.3,48.2,29.74,North,-999,-999.0,0.0,89,0.00,,---,0.00,VWS V14.01,2013-05-08 07:42:00,
2013-05-08 03:47:00,51.1,48.3,29.74,North,-999,-999.0,0.0,90,0.00,,---,0.00,VWS V14.01,2013-05-08 07:47:00,
2013-05-08 03:52:00,50.9,48.1,29.74,North,-999,-999.0,0.0,90,0.00,,---,0.00,VWS V14.01,2013-05-08 07:52:00,
2013-05-08 03:57:00,50.9,47.8,29.74,North,-999,-999.0,0.0,89,0.00,,---,0.00,VWS V14.01,2013-05-08 07:57:00,
2013-05-08 04:03:00,50.8,47.7,29.74,North,-999,-999.0,0.0,89,0.00,,---,0.00,VWS V14.01,2013-05-08 08:03:00,
2013-05-08 04:08:00,50.6,47.5,29.74,North,-999,-999.0,0.0,89,0.00,,---,0.00,VWS V14.01,2013-05-08 08:08:00,
2013-05-08 04:13:00,50.4,47.3,29.75,North,-999,-999.0,0.0,89,0.00,,---,0.00,VWS V14.01,2013-05-08 08:13:00,
2013-05-08 04:18:00,50.4,47.3,29.74,North,-999,-999.0,0.0,89,0.00,,---,0.00,VWS V14.01,2013-05-08 08:18:00,
2013-05-08 04:23:00,50.2,47.1,29.74,North,-999,-999.0,0.0,89,0.00,,---,0.00,VWS V14.01,2013-05-08 08:23:00,
2013-05-08 04:28:00,50.0,46.9,29.74,North,-999,-999.0,0.0,89,0.00,,---,0.00,VWS V14.01,2013-05-08 08:28:00,
2013-05-08 04:33:00,50.0,46.9,29.74,North,-999,-999.0,0.0,89,0.00,,---,0.00,VWS V14.01,2013-05-08 08:33:00,
2013-05-08 04:38:00,49.9,46.8,29.74,North,-999,-999.0,0.0,89,0.00,,---,0.00,VWS V14.01,2013-05-08 08:38:00,
2013-05-08 04:43:00,49.7,46.6,29.75,North,-999,-999.0,0.0,89,0.00,,---,0.00,VWS V14.01,2013-05-08 08:43:00,
2013-05-08 04:48:00,49.7,46.6,29.75,North,-999,-999.0,0.0,89,0.00,,---,0.00,VWS V14.01,2013-05-08 08:48:00,
2013-05-08 04:53:00,49.7,46.6,29.75,North,-999,-999.0,0.0,89,0.00,,---,0.00,VWS V14.01,2013-05-08 08:53:00,
2013-05-08 04:58:00,49.5,46.4,29.75,North,-999,-999.0,0.0,89,0.00,,---,0.00,VWS V14.01,2013-05-08 08:58:00,
2013-05-08 05:04:00,49.3,46.2,29.75,North,-999,-999.0,0.0,89,0.00,,---,0.00,VWS V14.01,2013-05-08 09:04:00,
2013-05-08 05:09:00,49.3,46.2,29.75,North,-999,-999.0,0.0,89,0.00,,---,0.00,VWS V14.01,2013-05-08 09:09:00,
2013-05-08 05:14:00,49.1,46.0,29.75,North,-999,-999.0,0.0,89,0.00,,---,0.00,VWS V14.01,2013-05-08 09:14:00,
2013-05-08 05:19:00,49.0,46.2,29.75,North,-999,-999.0,0.0,90,0.00,,---,0.00,VWS V14.01,2013-05-08 09:19:00,
2013-05-08 05:24:00,49.0,45.9,29.75,North,-999,-999.0,0.0,89,0.00,,---,0.00,VWS V14.01,2013-05-08 09:24:00,
2013-05-08 05:29:00,48.8,46.0,29.76,North,-999,-999.0,0.0,90,0.00,,---,0.00,VWS V14.01,2013-05-08 09:29:00,
2013-05-08 05:34:00,48.8,46.0,29.76,North,-999,-999.0,0.0,90,0.00,,---,0.00,VWS V14.01,2013-05-08 09:34:00,
2013-05-08 05:39:00,48.6,45.8,29.76,North,-999,-999.0,0.0,90,0.00,,---,0.00,VWS V14.01,2013-05-08 09:39:00,
2013-05-08 05:44:00,48.6,45.8,29.76,North,-999,-999.0,0.0,90,0.00,,---,0.00,VWS V14.01,2013-05-08 09:44:00,
2013-05-08 05:49:00,48.6,45.8,29.76,North,-999,-999.0,0.0,90,0.00,,---,0.00,VWS V14.01,2013-05-08 09:49:00,
2013-05-08 05:54:00,48.4,45.6,29.76,North,-999,-999.0,0.0,90,0.00,,---,0.00,VWS V14.01,2013-05-08 09:54:00,
2013-05-08 05:59:00,48.2,45.4,29.76,North,-999,-999.0,0.0,90,0.00,,---,0.00,VWS V14.01,2013-05-08 09:59:00,
2013-05-08 06:04:00,48.1,45.3,29.76,North,-999,-999.0,0.0,90,0.00,,---,0.00,VWS V14.01,2013-05-08 10:04:00,
2013-05-08 06:10:00,48.1,45.3,29.76,North,-999,-999.0,0.0,90,0.00,,---,0.00,VWS V14.01,2013-05-08 10:10:00,
2013-05-08 06:15:00,47.9,45.1,29.76,North,-999,-999.0,0.0,90,0.00,,---,0.00,VWS V14.01,2013-05-08 10:15:00,
2013-05-08 06:20:00,47.9,45.1,29.76,North,-999,-999.0,0.0,90,0.00,,---,0.00,VWS V14.01,2013-05-08 10:20:00,
2013-05-08 06:25:00,47.9,45.1,29.76,North,-999,-999.0,0.0,90,0.00,,---,0.00,VWS V14.01,2013-05-08 10:25:00,
2013-05-08 06:30:00,47.9,45.1,29.76,North,-999,-999.0,0.0,90,0.00,,---,0.00,VWS V14.01,2013-05-08 10:30:00,
2013-05-08 06:35:00,47.9,45.1,29.77,North,-999,-999.0,0.0,90,0.00,,---,0.00,VWS V14.01,2013-05-08 10:35:00,
2013-05-08 06:40:00,47.9,45.1,29.77,North,-999,-999.0,0.0,90,0.00,,---,0.00,VWS V14.01,2013-05-08 10:40:00,
2013-05-08 06:45:00,47.9,45.1,29.77,North,-999,-999.0,0.0,90,0.00,,---,0.00,VWS V14.01,2013-05-08 10:45:00,
2013-05-08 06:50:00,47.9,45.1,29.77,North,-999,-999.0,0.0,90,0.00,,---,0.00,VWS V14.01,2013-05-08 10:50:00,
2013-05-08 06:55:00,47.9,45.1,29.77,North,-999,-999.0,0.0,90,0.00,,---,0.00,VWS V14.01,2013-05-08 10:55:00,
2013-05-08 07:01:00,48.1,45.3,29.77,North,-999,-999.0,0.0,90,0.00,,---,0.00,VWS V14.01,2013-05-08 11:01:00,
2013-05-08 07:06:00,48.1,45.3,29.78,North,-999,-999.0,0.0,90,0.00,,---,0.00,VWS V14.01,2013-05-08 11:06:00,
2013-05-08 07:11:00,48.1,45.3,29.78,North,-999,-999.0,0.0,90,0.00,,---,0.00,VWS V14.01,2013-05-08 11:11:00,
2013-05-08 07:16:00,48.2,45.7,29.78,North,-999,-999.0,0.0,91,0.00,,---,0.00,VWS V14.01,2013-05-08 11:16:00,
2013-05-08 07:21:00,48.2,45.7,29.78,North,-999,-999.0,0.0,91,0.00,,---,0.00,VWS V14.01,2013-05-08 11:21:00,
2013-05-08 07:26:00,48.4,45.9,29.78,North,-999,-999.0,0.0,91,0.00,,---,0.00,VWS V14.01,2013-05-08 11:26:00,
2013-05-08 07:31:00,48.6,46.1,29.78,North,-999,-999.0,0.0,91,0.00,,---,0.00,VWS V14.01,2013-05-08 11:31:00,
2013-05-08 07:36:00,49.0,46.5,29.78,North,-999,-999.0,0.0,91,0.00,,---,0.00,VWS V14.01,2013-05-08 11:36:00,
2013-05-08 07:41:00,49.1,46.6,29.78,North,-999,-999.0,0.0,91,0.00,,---,0.00,VWS V14.01,2013-05-08 11:41:00,
2013-05-08 07:46:00,49.7,47.2,29.78,North,-999,-999.0,0.0,91,0.00,,---,0.00,VWS V14.01,2013-05-08 11:46:00,
2013-05-08 07:51:00,49.9,47.4,29.78,North,-999,-999.0,0.0,91,0.00,,---,0.00,VWS V14.01,2013-05-08 11:51:00,
2013-05-08 07:56:00,50.4,47.9,29.79,North,-999,-999.0,0.0,91,0.00,,---,0.00,VWS V14.01,2013-05-08 11:56:00,
2013-05-08 08:02:00,50.8,48.3,29.79,North,-999,-999.0,0.0,91,0.00,,---,0.00,VWS V14.01,2013-05-08 12:02:00,
2013-05-08 08:07:00,51.3,48.8,29.79,North,-999,-999.0,0.0,91,0.00,,---,0.00,VWS V14.01,2013-05-08 12:07:00,
2013-05-08 08:12:00,51.8,49.3,29.79,North,-999,-999.0,0.0,91,0.00,,---,0.00,VWS V14.01,2013-05-08 12:12:00,
2013-05-08 08:17:00,52.6,50.3,29.79,North,-999,-999.0,0.0,92,0.00,,---,0.00,VWS V14.01,2013-05-08 12:17:00,
2013-05-08 08:22:00,53.3,51.0,29.79,North,-999,-999.0,0.0,92,0.00,,---,0.00,VWS V14.01,2013-05-08 12:22:00,
2013-05-08 08:27:00,53.6,51.3,29.79,North,-999,-999.0,0.0,92,0.00,,---,0.00,VWS V14.01,2013-05-08 12:27:00,
2013-05-08 08:32:00,54.5,52.2,29.79,North,-999,-999.0,0.0,92,0.00,,---,0.00,VWS V14.01,2013-05-08 12:32:00,
2013-05-08 08:37:00,55.3,53.0,29.79,North,-999,-999.0,0.0,92,0.00,,---,0.00,VWS V14.01,2013-05-08 12:37:00,
2013-05-08 08:42:00,56.0,53.7,29.79,North,-999,-999.0,0.0,92,0.00,,---,0.00,VWS V14.01,2013-05-08 12:42:00,
2013-05-08 08:47:00,56.7,54.4,29.79,North,-999,-999.0,0.0,92,0.00,,---,0.00,VWS V14.01,2013-05-08 12:47:00,
2013-05-08 08:52:00,57.4,55.1,29.79,North,-999,-999.0,0.0,92,0.00,,---,0.00,VWS V14.01,2013-05-08 12:52:00,
2013-05-08 08:57:00,58.0,55.4,29.80,North,-999,-999.0,0.0,91,0.00,,---,0.00,VWS V14.01,2013-05-08 12:57:00,
2013-05-08 09:03:00,58.7,56.1,29.80,North,-999,-999.0,0.0,91,0.00,,---,0.00,VWS V14.01,2013-05-08 13:03:00,
2013-05-08 09:08:00,59.2,56.9,29.79,North,-999,-999.0,0.0,92,0.00,,---,0.00,VWS V14.01,2013-05-08 13:08:00,
2013-05-08 09:13:00,59.6,57.3,29.80,North,-999,-999.0,0.0,92,0.00,,---,0.00,VWS V14.01,2013-05-08 13:13:00,
2013-05-08 09:18:00,60.1,57.2,29.80,North,-999,-999.0,0.0,90,0.00,,---,0.00,VWS V14.01,2013-05-08 13:18:00,
2013-05-08 09:23:00,60.7,57.4,29.80,North,-999,-999.0,0.0,89,0.00,,---,0.00,VWS V14.01,2013-05-08 13:23:00,
2013-05-08 09:28:00,60.8,56.9,29.80,North,-999,-999.0,0.0,87,0.00,,---,0.00,VWS V14.01,2013-05-08 13:28:00,
2013-05-08 09:33:00,61.0,57.1,29.81,North,-999,-999.0,0.0,87,0.00,,---,0.00,VWS V14.01,2013-05-08 13:33:00,
2013-05-08 09:38:00,61.4,57.2,29.81,North,-999,-999.0,0.0,86,0.00,,---,0.00,VWS V14.01,2013-05-08 13:38:00,
2013-05-08 09:43:00,61.9,57.0,29.80,North,-999,-999.0,0.0,84,0.00,,---,0.00,VWS V14.01,2013-05-08 13:43:00,
2013-05-08 09:48:00,62.3,57.4,29.80,North,-999,-999.0,0.0,84,0.00,,---,0.00,VWS V14.01,2013-05-08 13:48:00,
2013-05-08 09:53:00,62.8,58.2,29.81,North,-999,-999.0,0.0,85,0.00,,---,0.00,VWS V14.01,2013-05-08 13:53:00,
2013-05-08 09:58:00,63.2,58.0,29.81,North,-999,-999.0,0.0,83,0.00,,---,0.00,VWS V14.01,2013-05-08 13:58:00,
2013-05-08 10:04:00,63.4,57.1,29.81,North,-999,-999.0,0.0,80,0.00,,---,0.00,VWS V14.01,2013-05-08 14:04:00,
2013-05-08 10:09:00,64.1,57.8,29.81,North,-999,-999.0,0.0,80,0.00,,---,0.00,VWS V14.01,2013-05-08 14:09:00,
2013-05-08 10:13:00,64.6,58.0,29.81,North,-999,-999.0,0.0,79,0.00,,---,0.00,VWS V14.01,2013-05-08 14:13:00,
2013-05-08 10:15:00,64.6,58.0,29.81,North,-999,-999.0,0.0,79,0.00,,---,0.00,VWS V14.01,2013-05-08 14:15:00,
2013-05-08 10:21:00,64.6,58.0,29.81,North,-999,-999.0,0.0,79,0.00,,---,0.00,VWS V14.01,2013-05-08 14:21:00,
2013-05-08 11:00:00,68.8,58.6,29.81,North,-999,-999.0,0.0,70,0.00,,---,0.00,VWS V14.01,2013-05-08 15:00:00,
2013-05-08 11:05:00,68.8,58.6,29.81,North,-999,-999.0,0.0,70,0.00,,---,0.00,VWS V14.01,2013-05-08 15:05:00,
2013-05-08 12:00:00,72.2,58.0,29.82,North,-999,-999.0,0.0,61,0.00,,---,0.00,VWS V14.01,2013-05-08 16:00:00,
2013-05-08 12:05:00,72.2,58.0,29.82,North,-999,-999.0,0.0,61,0.00,,---,0.00,VWS V14.01,2013-05-08 16:05:00,
2013-05-08 14:00:00,76.9,56.9,29.79,North,-999,-999.0,0.0,50,0.00,,---,0.00,VWS V14.01,2013-05-08 18:00:00,
2013-05-08 14:06:00,76.9,56.9,29.79,North,-999,-999.0,0.0,50,0.00,,---,0.00,VWS V14.01,2013-05-08 18:06:00,
2013-05-08 15:00:00,81.7,57.7,29.79,North,-999,-999.0,0.0,44,0.00,,---,0.00,VWS V14.01,2013-05-08 19:00:00,
2013-05-08 15:06:00,81.7,57.7,29.79,North,-999,-999.0,0.0,44,0.00,,---,0.00,VWS V14.01,2013-05-08 19:06:00,
2013-05-08 15:59:00,80.3,57.0,29.77,North,-999,-999.0,0.0,45,0.00,,---,0.00,VWS V14.01,2013-05-08 19:59:00,
2013-05-08 16:05:00,79.6,57.6,29.77,North,-999,-999.0,0.0,47,0.00,,---,0.00,VWS V14.01,2013-05-08 20:05:00,
2013-05-08 16:10:00,81.2,57.9,29.77,North,-999,-999.0,0.0,45,0.00,,---,0.00,VWS V14.01,2013-05-08 20:10:00,
2013-05-08 16:16:00,82.1,56.8,29.77,North,-999,-999.0,0.0,42,0.00,,---,0.00,VWS V14.01,2013-05-08 20:16:00,
2013-05-08 16:22:00,82.6,57.2,29.77,North,-999,-999.0,0.0,42,0.00,,---,0.00,VWS V14.01,2013-05-08 20:22:00,
2013-05-08 16:27:00,84.6,58.3,29.77,North,-999,-999.0,0.0,41,0.00,,---,0.00,VWS V14.01,2013-05-08 20:27:00,
2013-05-08 16:32:00,86.2,59.8,29.77,North,-999,-999.0,0.0,41,0.00,,---,0.00,VWS V14.01,2013-05-08 20:32:00,
2013-05-08 16:37:00,86.6,57.2,29.77,North,-999,-999.0,0.0,37,0.00,,---,0.00,VWS V14.01,2013-05-08 20:37:00,
2013-05-08 16:42:00,85.0,55.8,29.77,North,-999,-999.0,0.0,37,0.00,,---,0.00,VWS V14.01,2013-05-08 20:42:00,
2013-05-08 16:47:00,83.2,55.7,29.77,North,-999,-999.0,0.0,39,0.00,,---,0.00,VWS V14.01,2013-05-08 20:47:00,
2013-05-08 16:52:00,81.5,54.2,29.77,North,-999,-999.0,0.0,39,0.00,,---,0.00,VWS V14.01,2013-05-08 20:52:00,
2013-05-08 16:57:00,79.9,53.5,29.77,North,-999,-999.0,0.0,40,0.00,,---,0.00,VWS V14.01,2013-05-08 20:57:00,
2013-05-08 17:02:00,79.2,53.5,29.77,North,-999,-999.0,0.0,41,0.00,,---,0.00,VWS V14.01,2013-05-08 21:02:00,
2013-05-08 17:08:00,78.8,54.4,29.77,North,-999,-999.0,0.0,43,0.00,,---,0.00,VWS V14.01,2013-05-08 21:08:00,
2013-05-08 17:13:00,79.0,54.6,29.77,North,-999,-999.0,0.0,43,0.00,,---,0.00,VWS V14.01,2013-05-08 21:13:00,
2013-05-08 17:18:00,78.5,54.8,29.77,North,-999,-999.0,0.0,44,0.00,,---,0.00,VWS V14.01,2013-05-08 21:18:00,
2013-05-08 17:23:00,78.5,55.4,29.78,North,-999,-999.0,0.0,45,0.00,,---,0.00,VWS V14.01,2013-05-08 21:23:00,
2013-05-08 17:28:00,78.1,55.0,29.77,North,-999,-999.0,0.0,45,0.00,,---,0.00,VWS V14.01,2013-05-08 21:28:00,
2013-05-08 17:33:00,77.8,54.8,29.77,North,-999,-999.0,0.0,45,0.00,,---,0.00,VWS V14.01,2013-05-08 21:33:00,
2013-05-08 17:38:00,77.4,55.0,29.78,North,-999,-999.0,0.0,46,0.00,,---,0.00,VWS V14.01,2013-05-08 21:38:00,
2013-05-08 17:43:00,76.9,54.6,29.77,North,-999,-999.0,0.0,46,0.00,,---,0.00,VWS V14.01,2013-05-08 21:43:00,
2013-05-08 17:48:00,76.7,54.4,29.77,North,-999,-999.0,0.0,46,0.00,,---,0.00,VWS V14.01,2013-05-08 21:48:00,
2013-05-08 17:53:00,76.5,54.2,29.77,North,-999,-999.0,0.0,46,0.00,,---,0.00,VWS V14.01,2013-05-08 21:53:00,
2013-05-08 17:58:00,77.0,55.2,29.77,North,-999,-999.0,0.0,47,0.00,,---,0.00,VWS V14.01,2013-05-08 21:58:00,
2013-05-08 18:04:00,79.2,55.4,29.77,North,-999,-999.0,0.0,44,0.00,,---,0.00,VWS V14.01,2013-05-08 22:04:00,
2013-05-08 18:09:00,80.3,57.0,29.77,North,-999,-999.0,0.0,45,0.00,,---,0.00,VWS V14.01,2013-05-08 22:09:00,
2013-05-08 18:14:00,80.6,56.7,29.77,North,-999,-999.0,0.0,44,0.00,,---,0.00,VWS V14.01,2013-05-08 22:14:00,
2013-05-08 18:19:00,81.0,56.4,29.77,North,-999,-999.0,0.0,43,0.00,,---,0.00,VWS V14.01,2013-05-08 22:19:00,
2013-05-08 18:24:00,81.0,55.1,29.77,North,-999,-999.0,0.0,41,0.00,,---,0.00,VWS V14.01,2013-05-08 22:24:00,
2013-05-08 18:29:00,80.3,55.1,29.77,North,-999,-999.0,0.0,42,0.00,,---,0.00,VWS V14.01,2013-05-08 22:29:00,
2013-05-08 18:34:00,80.1,55.0,29.77,North,-999,-999.0,0.0,42,0.00,,---,0.00,VWS V14.01,2013-05-08 22:34:00,
2013-05-08 18:39:00,79.7,55.2,29.77,North,-999,-999.0,0.0,43,0.00,,---,0.00,VWS V14.01,2013-05-08 22:39:00,
2013-05-08 18:44:00,79.2,54.8,29.77,North,-999,-999.0,0.0,43,0.00,,---,0.00,VWS V14.01,2013-05-08 22:44:00,
2013-05-08 18:47:00,79.0,54.6,29.77,North,-999,-999.0,0.0,43,0.00,,---,0.00,VWS V14.01,2013-05-08 22:47:00,
2013-05-08 18:51:00,79.0,54.6,29.77,North,-999,-999.0,0.0,43,0.00,,---,0.48,VWS V14.01,2013-05-08 22:51:00,
2013-05-08 18:57:00,79.0,54.6,29.77,North,-999,-999.0,0.0,43,0.00,,---,0.00,VWS V14.01,2013-05-08 22:57:00,
2013-05-08 18:59:00,77.2,54.8,29.77,North,-999,-999.0,0.0,46,0.00,,---,0.00,VWS V14.01,2013-05-08 22:59:00,
2013-05-08 19:03:00,77.2,54.8,29.77,North,-999,-999.0,0.0,46,0.00,,---,0.00,VWS V14.01,2013-05-08 23:03:00,
2013-05-08 19:09:00,77.2,54.8,29.77,North,-999,-999.0,0.0,46,0.00,,---,0.00,VWS V14.01,2013-05-08 23:09:00,
2013-05-08 19:59:00,73.8,54.0,29.79,North,-999,-999.0,0.0,50,0.00,,---,0.00,VWS V14.01,2013-05-08 23:59:00,
2013-05-08 20:05:00,73.3,54.1,29.79,North,-999,-999.0,0.0,51,0.00,,---,0.00,VWS V14.01,2013-05-09 00:05:00,
2013-05-08 20:10:00,73.1,53.9,29.79,North,-999,-999.0,0.0,51,0.00,,---,0.00,VWS V14.01,2013-05-09 00:10:00,
2013-05-08 20:16:00,72.7,54.1,29.79,North,-999,-999.0,0.0,52,0.00,,---,0.00,VWS V14.01,2013-05-09 00:16:00,
2013-05-08 20:21:00,72.4,53.8,29.80,North,-999,-999.0,0.0,52,0.00,,---,0.00,VWS V14.01,2013-05-09 00:21:00,
2013-05-08 20:26:00,72.2,54.1,29.80,North,-999,-999.0,0.0,53,0.00,,---,0.00,VWS V14.01,2013-05-09 00:26:00,
2013-05-08 20:31:00,72.0,54.0,29.80,North,-999,-999.0,0.0,53,0.00,,---,0.00,VWS V14.01,2013-05-09 00:31:00,
2013-05-08 20:36:00,71.6,53.6,29.80,North,-999,-999.0,0.0,53,0.00,,---,0.00,VWS V14.01,2013-05-09 00:36:00,
2013-05-08 20:41:00,71.5,54.0,29.81,North,-999,-999.0,0.0,54,0.00,,---,0.00,VWS V14.01,2013-05-09 00:41:00,
2013-05-08 20:46:00,71.1,54.1,29.81,North,-999,-999.0,0.0,55,0.00,,---,0.00,VWS V14.01,2013-05-09 00:46:00,
2013-05-08 20:51:00,70.7,53.8,29.82,North,-999,-999.0,0.0,55,0.00,,---,0.00,VWS V14.01,2013-05-09 00:51:00,
2013-05-08 20:56:00,70.2,53.8,29.81,North,-999,-999.0,0.0,56,0.00,,---,0.00,VWS V14.01,2013-05-09 00:56:00,
2013-05-08 21:02:00,69.3,53.4,29.82,North,-999,-999.0,0.0,57,0.00,,---,0.00,VWS V14.01,2013-05-09 01:02:00,
2013-05-08 21:07:00,68.6,53.7,29.82,North,-999,-999.0,0.0,59,0.00,,---,0.00,VWS V14.01,2013-05-09 01:07:00,
2013-05-08 21:12:00,67.7,53.8,29.82,North,-999,-999.0,0.0,61,0.00,,---,0.00,VWS V14.01,2013-05-09 01:12:00,
2013-05-08 21:17:00,67.1,53.7,29.82,North,-999,-999.0,0.0,62,0.00,,---,0.00,VWS V14.01,2013-05-09 01:17:00,
2013-05-08 21:22:00,66.6,53.6,29.82,North,-999,-999.0,0.0,63,0.00,,---,0.00,VWS V14.01,2013-05-09 01:22:00,
2013-05-08 21:27:00,66.1,53.6,29.82,North,-999,-999.0,0.0,64,0.00,,---,0.00,VWS V14.01,2013-05-09 01:27:00,
2013-05-08 21:32:00,65.7,53.6,29.82,North,-999,-999.0,0.0,65,0.00,,---,0.00,VWS V14.01,2013-05-09 01:32:00,
2013-05-08 21:38:00,65.2,53.2,29.82,North,-999,-999.0,0.0,65,0.00,,---,0.00,VWS V14.01,2013-05-09 01:38:00,
2013-05-08 21:43:00,64.6,53.4,29.82,North,-999,-999.0,0.0,67,0.00,,---,0.00,VWS V14.01,2013-05-09 01:43:00,
2013-05-08 21:48:00,64.3,53.1,29.82,North,-999,-999.0,0.0,67,0.00,,---,0.00,VWS V14.01,2013-05-09 01:48:00,
2013-05-08 21:53:00,64.1,53.3,29.83,North,-999,-999.0,0.0,68,0.00,,---,0.00,VWS V14.01,2013-05-09 01:53:00,
2013-05-08 21:58:00,63.5,53.5,29.83,North,-999,-999.0,0.0,70,0.00,,---,0.00,VWS V14.01,2013-05-09 01:58:00,
2013-05-08 22:03:00,63.0,53.1,29.83,North,-999,-999.0,0.0,70,0.00,,---,0.00,VWS V14.01,2013-05-09 02:03:00,
2013-05-08 22:09:00,62.6,53.1,29.83,North,-999,-999.0,0.0,71,0.00,,---,0.00,VWS V14.01,2013-05-09 02:09:00,
2013-05-08 22:14:00,62.3,53.2,29.83,North,-999,-999.0,0.0,72,0.00,,---,0.00,VWS V14.01,2013-05-09 02:14:00,
2013-05-08 22:19:00,62.1,53.0,29.83,North,-999,-999.0,0.0,72,0.00,,---,0.00,VWS V14.01,2013-05-09 02:19:00,
2013-05-08 22:24:00,61.9,52.8,29.84,North,-999,-999.0,0.0,72,0.00,,---,0.00,VWS V14.01,2013-05-09 02:24:00,
2013-05-08 22:29:00,61.6,52.5,29.84,North,-999,-999.0,0.0,72,0.00,,---,0.00,VWS V14.01,2013-05-09 02:29:00,
2013-05-08 22:34:00,61.2,52.5,29.84,North,-999,-999.0,0.0,73,0.00,,---,0.00,VWS V14.01,2013-05-09 02:34:00,
2013-05-08 22:39:00,61.0,52.3,29.84,North,-999,-999.0,0.0,73,0.00,,---,0.00,VWS V14.01,2013-05-09 02:39:00,
2013-05-08 22:44:00,60.8,52.5,29.84,North,-999,-999.0,0.0,74,0.00,,---,0.00,VWS V14.01,2013-05-09 02:44:00,
2013-05-08 22:49:00,60.5,52.5,29.84,North,-999,-999.0,0.0,75,0.00,,---,0.00,VWS V14.01,2013-05-09 02:49:00,
2013-05-08 22:54:00,60.3,52.7,29.84,North,-999,-999.0,0.0,76,0.00,,---,0.00,VWS V14.01,2013-05-09 02:54:00,
2013-05-08 22:59:00,59.9,52.3,29.84,North,-999,-999.0,0.0,76,0.00,,---,0.00,VWS V14.01,2013-05-09 02:59:00,
2013-05-08 23:05:00,59.6,52.0,29.85,North,-999,-999.0,0.0,76,0.00,,---,0.00,VWS V14.01,2013-05-09 03:05:00,
2013-05-08 23:06:00,59.6,52.4,29.84,North,-999,-999.0,0.0,77,0.00,,---,0.00,VWS V14.01,2013-05-09 03:06:00,
2013-05-08 23:11:00,59.6,52.4,29.84,North,-999,-999.0,0.0,77,0.00,,---,0.00,VWS V14.01,2013-05-09 03:11:00,
2013-05-08 23:59:00,57.8,52.0,29.84,North,-999,-999.0,0.0,81,0.00,,---,0.00,VWS V14.01,2013-05-09 03:59:00,